Home   Weather   Surat   Past weeks
Flag for India

Past Weather in Surat, Gujarat, India — Yesterday and Last 2 Weeks

Now
66 °F

Passing clouds.


Feels Like: 66 °F
Forecast: 79 / 64 °F
Wind: No wind

Location: Ahmadabad Airport

Current Time: Jan 23, 2019 at 12:27:26 am

Latest Report: Jan 22, 2019 at 11:30 pm


Visibility: 2 mi

Pressure: 29.95 "Hg

Humidity: 52%

Dew Point: 48 °F

Location of SuratLocation

Past Weather in Surat — Graph

°F

Surat Temperature Yesterday

Maximum temperature yesterday: 79 °F (at 2:30 pm)
Minimum temperature yesterday: 59 °F (at 5:30 am)
Average temperature yesterday: 68 °F

High & Low Weather Summary for the Past Weeks

 TemperatureHumidityPressure
High91 °F (Jan 20, 3:30 pm)82% (Jan 17, 6:30 am)30.15 "Hg (Jan 17, 6:30 am)
Low48 °F (Jan 9, 7:00 am)17% (Jan 19, 3:00 pm)29.80 "Hg (Jan 21, 4:00 pm)
Average67 °F46%29.99 "Hg
* Reported Jan 7 6:30 pm — Jan 22 6:30 pm, Surat. Weather by CustomWeather, © 2019

Note: Actual official high and low records may vary slightly from our data, if they occured in-between our weather recording intervals... More about our weather records

Advertising

Surat Weather History for the Previous 24 Hours

Scroll right to see more
 ConditionsComfort  
Time TempWeatherWind HumidityBarometerVisibility
6:30 pm
Tue, Jan 22
72 °FClear.2 mph44%29.89 "Hg3 mi
5:30 pm75 °FClear.7 mph39%29.89 "Hg4 mi
5:00 pm75 °FClear.10 mph36%29.89 "Hg4 mi
4:30 pm77 °FPassing clouds.7 mph34%29.89 "Hg4 mi
4:00 pm77 °FPassing clouds.6 mph36%29.89 "Hg4 mi
3:30 pm77 °FPassing clouds.6 mph34%29.89 "Hg4 mi
3:00 pm77 °FPassing clouds.9 mph34%29.89 "Hg4 mi
2:30 pm79 °FPassing clouds.7 mph34%29.92 "Hg4 mi
2:00 pm77 °FPassing clouds.6 mph36%29.92 "Hg4 mi
1:00 pm75 °FPassing clouds.5 mph39%29.95 "Hg4 mi
12:30 pm75 °FClear.6 mph39%29.98 "Hg4 mi
12:00 pm73 °FClear.7 mph41%29.98 "Hg4 mi
11:30 am72 °FClear.8 mph47%29.98 "Hg3 mi
11:00 am70 °FClear.6 mph50%30.01 "Hg2 mi
10:30 am68 °FClear.6 mph53%29.98 "Hg2 mi
10:00 am66 °FClear.5 mph56%29.98 "Hg2 mi
9:30 am63 °FHaze.3 mph64%29.98 "Hg1 mi
9:00 am61 °FHaze.3 mph68%29.98 "Hg1 mi
8:30 am59 °FHaze.3 mph72%29.95 "Hg1 mi
8:00 am59 °FHaze.3 mph72%29.95 "Hg1 mi
7:30 am59 °FHaze.3 mph77%29.95 "Hg1 mi
7:00 am59 °FHaze.3 mph82%29.92 "Hg2 mi
6:30 am61 °FHaze.3 mph77%29.92 "Hg2 mi
6:00 am59 °FHaze.3 mph77%29.89 "Hg2 mi
5:30 am59 °FHaze.5 mph82%29.89 "Hg2 mi
5:00 am63 °FHaze.5 mph73%29.86 "Hg2 mi
4:30 am63 °FHaze.5 mph73%29.86 "Hg2 mi
4:00 am64 °FHaze.5 mph68%29.86 "Hg2 mi
3:30 am66 °FPassing clouds.5 mph64%29.86 "Hg2 mi
3:00 am66 °FPassing clouds.6 mph68%29.86 "Hg2 mi
2:30 am68 °FPassing clouds.7 mph64%29.86 "Hg2 mi
2:00 am68 °FPassing clouds.6 mph64%29.86 "Hg2 mi
1:30 am70 °FPassing clouds.9 mph64%29.86 "Hg2 mi
1:00 am70 °FPassing clouds.9 mph64%29.86 "Hg2 mi
12:30 am70 °FPassing clouds.8 mph64%29.86 "Hg2 mi
12:00 am72 °FPassing clouds.8 mph61%29.89 "Hg2 mi
Weather by CustomWeather, © 2019

See weather overview